Showing default

CALSPHERE 1, 900

Orbit data source: Space-Track

CALSPHERE 1, 900 is a payload satellite owned by NRL (US) in LEO that was launched on Tue, 06 Oct 1964 UTC via a THOR ABLESTAR launch vehicle from the Air Force Western Test Range (AFWTR). Payload-class satellites include a variety of spacecraft equipped with specific instruments for various scientific and technological missions. These include communications satellites like Starlink; space stations such as the ISS; scientific satellites like the Hubble; Earth observation satellites from companies like Planet Labs, Umbra, and HawkEye 360; GPS; miniature CubeSats for education and research; and military/defense satellites.

Loading next visibility...
Identifier
900, 1964-063C
Orbit
LEO
Last TLE update
2 hours ago
Origin
Manufacturer
NRL
Mission
Operational Defense Calibration
Bus & Motor
NRL 14", Unknown motor
Mass
1 kg wet, 1 kg dry
Launch date (UTC)
1964-10-06 (61 years ago)
Launch vehicle
THOR ABLESTAR
Launch site
Air Force Western Test Range (AFWTR)
Object type
Payload
Rocket body
Debris
Shape & HBR
Sphere, 0.36 m
Radar Cross Section
0.102 m², Small (<0.1 m²)

Expand to show TLE details & history

TLE from 2 hours ago
0 CALSPHERE 1
1   900U 64063C   25129.24916755  .00000855  00000-0  86855-3 0  9999
2   900  90.2165  62.5055 0028246  74.5247  46.9373 13.76031381 15852
Epoch: 2025-05-09T05:58Z
Definitive object data (Epoch: 2025-05-09T05:58:48.076Z)
Latitude
58.39336°
Longitude
-74.15284°
Altitude
973.786 km
Speed
7.377 km/s
True Right ascension
16h 11m 25s
True Declination
58° 14' 39"
Sunlit
Object was in daylight at TLE epoch
Visualization TLE readout
Latitude
83.06487°
Longitude
103.72771°
Altitude
971.144 km
Speed
7.383 km/s
Apparent Right ascension
03h 44m 39s
Apparent Declination
28° 58' 19"
Sunlit
Object is in daylight
Visualization observer readout
Local Sidereal Time
15:41:20
Azimuth
359.222° N
Elevation
-21.108°
Doppler factor
1
Orbital elements
Apogee altitude
995.778 km
Perigee altitude
954.239 km
Semi-major axis
7,353.146 km
Eccentricity
0.0028246
Inclination
90.2165°
RAAN
62.5055°
Arg. of periapsis
74.5247°
True anomaly
47.17435°
Mean anomaly
46.9373°
Eccentric anomaly
47.05577°
Mean motion
3.44218 °/min
BSTAR
0.00086855
Orbital period
104.58 mins
Loading maneuver chart data...
Loading SW <> Apogee altitude chart data...
Loading historical data...
Loading historical data...
Loading historical data...
Loading historical data...
Loading historical data...
Loading historical data...
Loading historical data...

CALSPHERE 1 Visibility forecast

Observer location: undefined°, undefined°

Span
Click to sort rows by Start time (UTC) header in descending order
Start Az.
Max El. time (UTC)
Max El. Az.
Max El.
End time (UTC)
End Az.
11 mins2025-05-09 07:43:19.451Z7.469° NNE2025-05-09 07:49:19.451Z123.699° SE42.994°2025-05-09 07:54:19.451Z174.988° S
5 mins2025-05-09 09:30:19.451Z313.278° NW2025-05-09 09:32:19.451Z291.623° WNW15.591°2025-05-09 09:35:19.451Z259.434° W
10 mins2025-05-09 19:28:19.451Z155.428° SSE2025-05-09 19:33:19.451Z68.314° E39.47°2025-05-09 19:38:19.451Z7.593° NNE
6 mins2025-05-09 21:15:19.451Z249.703° W2025-05-09 21:17:19.451Z273.485° WNW18.863°2025-05-09 21:21:19.451Z319.451° NNW
6 mins2025-05-10 06:27:19.451Z51.612° ENE2025-05-10 06:29:19.451Z73.57° E16.369°2025-05-10 06:33:19.451Z116.081° SE
|